Погода в Ашхабаде

Поиск расширенной информации на нашем сайте:

Полезная информация:

Новости сайта



02.01.2020
Опубликован Долгосрочный прогноз погоды по городам России и ближнего зарубежья на январь 2020 года.
Карты: Прогноз на январь и февраль 2020 года, Сравнение прогнозируемой аномалии приземной температуры воздуха на январь 2020 года по разным моделям.




Погода в Ашхабаде - сегодня

Время (UTC), дата Ветер
(°,м/с) 
Видим.   Явления Облачность Т
(°С)
Тd
(°С)
f(%) Тe
(°С)
Pmin
(гПа)
dP
(гПа)
Po
(мм)
O2
(г/м3)
Тmin Tmax R s Состояние
почвы
12 09.08.20 360 (С) 10 км    ясно 
+36.2 +9.7 20 +37  1002.8  -1.8  735  260           
15 09.08.20 140 (ЮВ) 10 км    ясно 
+34.6 +10.4 23 +37  1002.3  -0.6  735  261    +37       
18 09.08.20 210 (ЮЗ) 10 км    ясно 
+31 +10.2 28 +33  1003.1  0.5  735  264    +37       
21 09.08.20 340 (С) 10 км    ясно 
+28.6 +11.4 34 +32  1003.3  735  266           
00 10.08.20 270 (З) 10 км    ясно 
+27.2 +11.8 38 +31  1003.7  0.3  735  267           
03 10.08.20 290 (З) 10 км    ясно 
+27.8 +8.6 30 +28  1005.2  1.5  736  268  +26.2        сухая 
06 10.08.20 320 (СЗ) 10 км    4/1 1500 м средняя 
[Sc|Ac trans]
+30.8 +8.2 24 +31  1006.1  1.1  737  266  +26.2         
09 10.08.20 300 (СЗ) 10 км    1/1 1500 м 
[Sc]
+36 +6.5 16 +36  1005.4  -0.3  737  261           
12 10.08.20 310 (СЗ) 10 км    3/1 1500 м средняя 
[Sc|Ac trans]
+37.6 +8 17 +38  1004.6  -0.7  736  259           
15 10.08.20 270 (З) 10 км    1/0 средняя 
[Ac trans]
+36.4 +8 18 +36  1004.4  -0.2  736  260          полностью
покрыта
пылью 
18 10.08.20 270 (З) 10 км    ясно 
+31.4 +8.6 24 +31  1005.8  737  265    +38       
21 10.08.20 260 (З) 10 км    ясно 
+29.2 +9.9 30 +31  1006.3  0.3  737  267           
00 11.08.20 220 (ЮЗ) 10 км    ясно 
+27 +11 37 +30  1007.2  0.8  738  269           
03 11.08.20 060 (СВ) 10 км    ясно 
+26.4 +11.5 39 +30  1007.6  0.3  738  269  +25.8        сухая 
06 11.08.20 110 (В) 10 км    ясно 
+32.5 +9.8 25 +34  1006.8  -0.3  738  264  +25.8         
09 11.08.20 110 (В) 10 км    ясно 
+37.2 +10.6 20 +40  1005.3  -1.2  737  259           
12 11.08.20 110 (В) 10 км    ясно 
+38.3 +9 17 +39  1003.5  -1.6  736  258           
15 11.08.20 120 (ЮВ) 10 км    ясно 
+36.6 +10.2 20 +38  1003.5  -0.2  736  260    +38.3       
18 11.08.20 120 (ЮВ) 10 км    ясно 
+33.6 +9.2 22 +34  1004.2  0.5  736  262    +38.3       
21 11.08.20 030 (СВ) 10 км    ясно 
+29.8 +12.3 34 +35  1003.4  -1.1  735  265           
00 12.08.20 210 (ЮЗ) 10 км    ясно 
+26.8 +11.7 39 +31  1003.6  735  268           
03 12.08.20 260 (З) 10 км    1/0 средняя 
[Ac trans]
+27.4 +11.8 38 +31  1004.9  1.3  736  267  +25        сухая 
06 12.08.20 300 (СЗ) 10 км    ясно 
+32.8 +13 30 +39  1005.8  1.4  737  263  +25         
09 12.08.20 280 (З) 10 км    4/0 средняя, верхняя 
[Ac trans|Ci fib]
+36.4 +12.9 24 +42  1005.2  -0.4  737  260           
12 12.08.20 300 (СЗ) 10 км    3/0 средняя 
[Ac trans]
+38.6 +9.3 17 +39  1003.3  -1.7  736  258           
Время (UTC), дата Ветер
(°,м/с) 
Видим.   Явления Облачность Т
(°С)
Тd
(°С)
f(%) Тe
(°С)
Pmin
(гПа)
dP
(гПа)
Po
(мм)
O2
(г/м3)
Тmin Tmax R s Состояние
почвы

Для получения пояснительной информации подведите курсор к названию столбца.

ПОГОДА в Ашхабаде - архив

Всё, что Вы хотите узнать о погоде в Ашхабаде - удобно и подробно!

Выберите нужную дату (начиная с 1 января 2019* года) и нажмите кнопку "Найти".
Будут отображены архивные сводки погоды по пункту Ашхабад, начиная с указанной даты.


Отображать данные в формате CSV (для использования в таблицах Excel)


Внимание! Наш архив погоды предназначен исключительно для личного некоммерческого использования в познавательных целях. Если Вам необходимы официальные справки о состоянии погоды (для производственных, юридических, коммерческих и т.п. целей), обращайтесь в органы Росгидромета.

*Примечание: данная дата относится к архиву по метеостанциям СССР (Россия, СНГ, Балтия).
Архив по метеостанциям Зарубежной Европы и Азии (кроме Китая) хранится 10 дней, по другим регионам земного шара (Китай, Африка, Америка, Австралия, Океания) - 1 день.

Ашхабад - район местоположения метеостанции


Название, широта, долгота, высота метеостанции:
Ашхабад (город) 38°ш. 58.3°д. 208 м над ур. моря [Туркменистан]

Дополнительная информация

В oтличие oт бoльшинства пoгoдных сайтoв мы публикуем пoдрoбную метеoинфoрмацию в детальнoм прoфессиoнальнoм фoрмате.

Характеристики температуры и влажнoсти вoздуха измеряются на высoте 2 м в тени вдали oт зданий и деревьев.
Скoрoсть ветра измеряется на высoте 10 м (на урoвне рoста челoвека скoрoсть ветра ниже в 1.5-2 раза). Если метеoстанция нахoдится в гoрoде или в лесу, тo скoрoсть ветра занижена на 2-4 м/с пo сравнению с oткрытым местoм. Скoрoсть ветра над акватoриями крупных рек и oзёр, а также на вершинах хoлмoв на 2-5 м/с выше, чем в oбычных услoвиях.
Атмoсфернoе давление в разных тoчках местнoсти мoжет значительнo oтличаться oт давления на метеoстанции, в зависимoсти oт услoвий рельефа (при пoдъёме на 10 м давление пoнижается примернo на 1 мм рт.ст.).